Time,TemperatureF,DewpointF,PressureIn,WindDirection,WindDirectionDegrees,WindSpeedMPH,WindSpeedGustMPH,Humidity,HourlyPrecipIn,Conditions,Clouds,dailyrainin,SolarRadiationWatts/m^2,SoftwareType,DateUTC
2013-06-21 00:11:00,72.5,65.0,30.05,SE,139,0.0,2.0,78,0.00,,,0.00,0,weatherlink.com 1.10,2013-06-21 04:11:00,
2013-06-21 00:26:00,72.4,66.0,30.06,SE,139,0.0,3.0,79,0.00,,,0.00,0,weatherlink.com 1.10,2013-06-21 04:26:00,
2013-06-21 00:41:00,72.0,65.0,30.05,SE,139,0.0,3.0,79,0.00,,,0.00,0,weatherlink.com 1.10,2013-06-21 04:41:00,
2013-06-21 00:56:00,71.9,65.0,30.05,SE,139,1.0,4.0,79,0.00,,,0.00,0,weatherlink.com 1.10,2013-06-21 04:56:00,
2013-06-21 01:11:00,71.6,65.0,30.05,SE,139,1.0,4.0,79,0.00,,,0.00,0,weatherlink.com 1.10,2013-06-21 05:11:00,
2013-06-21 01:26:00,71.3,65.0,30.06,SE,139,1.0,4.0,80,0.00,,,0.00,0,weatherlink.com 1.10,2013-06-21 05:26:00,
2013-06-21 01:41:00,71.0,65.0,30.06,SE,139,0.0,2.0,80,0.00,,,0.00,0,weatherlink.com 1.10,2013-06-21 05:41:00,
2013-06-21 01:56:00,70.6,65.0,30.05,SE,139,0.0,2.0,81,0.00,,,0.00,0,weatherlink.com 1.10,2013-06-21 05:56:00,
2013-06-21 02:11:00,70.2,65.0,30.06,SE,139,0.0,3.0,82,0.00,,,0.00,0,weatherlink.com 1.10,2013-06-21 06:11:00,
2013-06-21 02:26:00,69.9,64.0,30.06,SE,139,0.0,2.0,82,0.00,,,0.00,0,weatherlink.com 1.10,2013-06-21 06:26:00,
2013-06-21 02:41:00,69.8,64.0,30.05,SE,139,0.0,3.0,81,0.00,,,0.00,0,weatherlink.com 1.10,2013-06-21 06:41:00,
2013-06-21 02:56:00,69.7,64.0,30.05,SE,139,1.0,3.0,81,0.00,,,0.00,0,weatherlink.com 1.10,2013-06-21 06:56:00,
2013-06-21 03:11:00,69.5,63.0,30.05,SE,139,2.0,3.0,81,0.00,,,0.00,0,weatherlink.com 1.10,2013-06-21 07:11:00,
2013-06-21 03:26:00,69.8,63.0,30.04,SE,139,1.0,7.0,79,0.00,,,0.00,0,weatherlink.com 1.10,2013-06-21 07:26:00,
2013-06-21 03:41:00,69.8,63.0,30.04,SE,144,1.0,6.0,78,0.00,,,0.00,0,weatherlink.com 1.10,2013-06-21 07:41:00,
2013-06-21 03:56:00,69.7,63.0,30.03,SSE,167,3.0,5.0,78,0.00,,,0.00,0,weatherlink.com 1.10,2013-06-21 07:56:00,
2013-06-21 04:11:00,69.6,62.0,30.04,SSE,167,0.0,5.0,78,0.00,,,0.00,0,weatherlink.com 1.10,2013-06-21 08:11:00,
2013-06-21 04:27:00,69.3,62.0,30.03,SSE,167,2.0,4.0,78,0.00,,,0.00,0,weatherlink.com 1.10,2013-06-21 08:27:00,
2013-06-21 04:42:00,69.1,62.0,30.04,SSE,167,0.0,5.0,78,0.00,,,0.00,0,weatherlink.com 1.10,2013-06-21 08:42:00,
2013-06-21 04:57:00,68.9,61.0,30.05,SSE,167,0.0,4.0,77,0.00,,,0.00,0,weatherlink.com 1.10,2013-06-21 08:57:00,
2013-06-21 05:12:00,68.7,61.0,30.04,SSE,167,2.0,4.0,77,0.00,,,0.00,0,weatherlink.com 1.10,2013-06-21 09:12:00,
2013-06-21 05:27:00,68.5,61.0,30.04,SSE,167,1.0,3.0,77,0.00,,,0.00,0,weatherlink.com 1.10,2013-06-21 09:27:00,
2013-06-21 05:42:00,68.6,61.0,30.05,South,171,0.0,6.0,76,0.00,,,0.00,0,weatherlink.com 1.10,2013-06-21 09:42:00,
2013-06-21 05:57:00,68.9,61.0,30.05,South,186,3.0,7.0,75,0.00,,,0.00,0,weatherlink.com 1.10,2013-06-21 09:57:00,
2013-06-21 06:12:00,68.8,60.0,30.04,South,186,5.0,6.0,74,0.00,,,0.00,5,weatherlink.com 1.10,2013-06-21 10:12:00,
2013-06-21 06:27:00,68.8,60.0,30.05,SSW,195,1.0,7.0,74,0.00,,,0.00,12,weatherlink.com 1.10,2013-06-21 10:27:00,
2013-06-21 06:42:00,69.0,60.0,30.04,SSW,201,0.0,7.0,73,0.00,,,0.00,21,weatherlink.com 1.10,2013-06-21 10:42:00,
2013-06-21 06:57:00,69.2,60.0,30.04,South,189,4.0,8.0,72,0.00,,,0.00,28,weatherlink.com 1.10,2013-06-21 10:57:00,
2013-06-21 07:12:00,69.4,60.0,30.04,South,191,5.0,8.0,72,0.00,,,0.00,53,weatherlink.com 1.10,2013-06-21 11:12:00,
2013-06-21 07:27:00,70.0,60.0,30.05,South,191,6.0,9.0,71,0.00,,,0.00,83,weatherlink.com 1.10,2013-06-21 11:27:00,
2013-06-21 07:42:00,70.7,60.0,30.06,SSW,208,1.0,8.0,70,0.00,,,0.00,125,weatherlink.com 1.10,2013-06-21 11:42:00,
2013-06-21 07:57:00,71.2,61.0,30.06,South,183,2.0,7.0,70,0.00,,,0.00,174,weatherlink.com 1.10,2013-06-21 11:57:00,
2013-06-21 08:12:00,71.8,61.0,30.07,SSW,209,5.0,8.0,69,0.00,,,0.00,218,weatherlink.com 1.10,2013-06-21 12:12:00,
2013-06-21 08:27:00,72.7,61.0,30.08,South,188,2.0,7.0,67,0.00,,,0.00,260,weatherlink.com 1.10,2013-06-21 12:27:00,
2013-06-21 08:42:00,73.4,61.0,30.05,SSE,156,5.0,9.0,66,0.00,,,0.00,320,weatherlink.com 1.10,2013-06-21 12:42:00,
2013-06-21 08:57:00,74.3,62.0,30.04,SSE,156,6.0,8.0,66,0.00,,,0.00,376,weatherlink.com 1.10,2013-06-21 12:57:00,
2013-06-21 09:12:00,74.8,63.0,30.05,SSW,211,1.0,11.0,66,0.00,,,0.00,387,weatherlink.com 1.10,2013-06-21 13:12:00,
2013-06-21 09:27:00,75.4,63.0,30.04,SSW,196,7.0,11.0,66,0.00,,,0.00,452,weatherlink.com 1.10,2013-06-21 13:27:00,
2013-06-21 09:42:00,76.2,64.0,30.05,SSE,168,3.0,9.0,65,0.00,,,0.00,482,weatherlink.com 1.10,2013-06-21 13:42:00,
2013-06-21 09:57:00,77.1,64.0,30.06,SSE,156,2.0,10.0,64,0.00,,,0.00,529,weatherlink.com 1.10,2013-06-21 13:57:00,
2013-06-21 10:13:00,77.9,64.0,30.06,SW,223,7.0,9.0,63,0.00,,,0.00,577,weatherlink.com 1.10,2013-06-21 14:13:00,
2013-06-21 10:28:00,79.2,65.0,30.04,West,269,3.0,9.0,63,0.00,,,0.00,606,weatherlink.com 1.10,2013-06-21 14:28:00,
2013-06-21 10:43:00,79.3,65.0,30.05,South,177,9.0,13.0,62,0.00,,,0.00,643,weatherlink.com 1.10,2013-06-21 14:43:00,
2013-06-21 10:58:00,79.6,65.0,30.05,SSE,155,3.0,16.0,61,0.00,,,0.00,638,weatherlink.com 1.10,2013-06-21 14:58:00,
2013-06-21 11:13:00,80.6,66.0,30.06,SSW,203,2.0,12.0,61,0.00,,,0.00,703,weatherlink.com 1.10,2013-06-21 15:13:00,
2013-06-21 11:28:00,81.0,66.0,30.06,SW,231,6.0,13.0,60,0.00,,,0.00,740,weatherlink.com 1.10,2013-06-21 15:28:00,
2013-06-21 11:43:00,81.4,66.0,30.05,SSW,193,4.0,13.0,60,0.00,,,0.00,754,weatherlink.com 1.10,2013-06-21 15:43:00,
2013-06-21 11:58:00,81.6,66.0,30.05,West,266,6.0,14.0,59,0.00,,,0.00,793,weatherlink.com 1.10,2013-06-21 15:58:00,
2013-06-21 12:13:00,82.4,66.0,30.05,SSW,199,7.0,11.0,58,0.00,,,0.00,802,weatherlink.com 1.10,2013-06-21 16:13:00,
2013-06-21 12:28:00,82.9,67.0,30.04,SSW,207,3.0,12.0,58,0.00,,,0.00,773,weatherlink.com 1.10,2013-06-21 16:28:00,
2013-06-21 12:43:00,83.0,66.0,30.04,South,174,5.0,13.0,56,0.00,,,0.00,824,weatherlink.com 1.10,2013-06-21 16:43:00,
2013-06-21 12:58:00,83.3,65.0,30.03,SW,218,7.0,13.0,55,0.00,,,0.00,837,weatherlink.com 1.10,2013-06-21 16:58:00,
2013-06-21 13:28:00,84.5,63.0,30.04,SW,220,4.0,14.0,49,0.00,,,0.00,881,weatherlink.com 1.10,2013-06-21 17:28:00,
2013-06-21 13:43:00,84.9,65.0,30.04,South,190,0.0,12.0,51,0.00,,,0.00,780,weatherlink.com 1.10,2013-06-21 17:43:00,
2013-06-21 13:58:00,84.9,64.0,30.04,SSW,205,4.0,15.0,49,0.00,,,0.00,763,weatherlink.com 1.10,2013-06-21 17:58:00,
2013-06-21 14:13:00,84.9,64.0,30.04,SSW,193,4.0,12.0,49,0.00,,,0.00,691,weatherlink.com 1.10,2013-06-21 18:13:00,
2013-06-21 14:28:00,84.8,62.0,30.04,SSW,192,8.0,13.0,47,0.00,,,0.00,645,weatherlink.com 1.10,2013-06-21 18:28:00,
2013-06-21 14:43:00,84.9,63.0,30.03,South,191,2.0,14.0,48,0.00,,,0.00,726,weatherlink.com 1.10,2013-06-21 18:43:00,
2013-06-21 14:58:00,85.7,63.0,30.03,SW,222,6.0,13.0,47,0.00,,,0.00,679,weatherlink.com 1.10,2013-06-21 18:58:00,
2013-06-21 15:13:00,85.7,64.0,30.02,WSW,237,4.0,11.0,48,0.00,,,0.00,675,weatherlink.com 1.10,2013-06-21 19:13:00,
2013-06-21 15:28:00,85.6,62.0,30.01,SW,228,3.0,12.0,46,0.00,,,0.00,652,weatherlink.com 1.10,2013-06-21 19:28:00,
2013-06-21 15:58:00,86.1,64.0,30.01,SSW,195,5.0,9.0,47,0.00,,,0.00,446,weatherlink.com 1.10,2013-06-21 19:58:00,
2013-06-21 16:14:00,85.2,63.0,30.01,South,185,1.0,8.0,48,0.00,,,0.00,262,weatherlink.com 1.10,2013-06-21 20:14:00,
2013-06-21 16:28:00,85.0,64.0,30.01,South,191,2.0,7.0,49,0.00,,,0.00,185,weatherlink.com 1.10,2013-06-21 20:28:00,
2013-06-21 16:44:00,84.4,64.0,30.00,SSW,208,0.0,7.0,51,0.00,,,0.00,206,weatherlink.com 1.10,2013-06-21 20:44:00,
2013-06-21 16:58:00,79.8,67.0,30.03,WNW,297,6.0,20.0,64,0.00,,,0.00,47,weatherlink.com 1.10,2013-06-21 20:58:00,
2013-06-21 17:13:00,75.0,67.0,30.04,WNW,299,9.0,17.0,76,0.00,,,0.00,32,weatherlink.com 1.10,2013-06-21 21:13:00,
2013-06-21 17:28:00,73.4,67.0,30.03,WNW,289,7.0,14.0,81,0.00,,,0.00,35,weatherlink.com 1.10,2013-06-21 21:28:00,
2013-06-21 17:43:00,72.6,69.0,30.01,WSW,249,1.0,6.0,87,0.02,,,0.02,23,weatherlink.com 1.10,2013-06-21 21:43:00,
2013-06-21 17:59:00,71.4,68.0,29.98,SE,126,2.0,6.0,89,0.04,,,0.04,21,weatherlink.com 1.10,2013-06-21 21:59:00,
2013-06-21 18:14:00,70.7,68.0,29.93,SSW,199,6.0,13.0,91,0.06,,,0.06,18,weatherlink.com 1.10,2013-06-21 22:14:00,
2013-06-21 18:29:00,70.9,68.0,29.90,SE,144,9.0,12.0,89,0.07,,,0.07,16,weatherlink.com 1.10,2013-06-21 22:29:00,
2013-06-21 18:44:00,71.0,68.0,29.85,SW,222,9.0,21.0,90,0.05,,,0.07,18,weatherlink.com 1.10,2013-06-21 22:44:00,
2013-06-21 18:59:00,71.6,68.0,29.86,SE,128,0.0,14.0,87,0.03,,,0.07,19,weatherlink.com 1.10,2013-06-21 22:59:00,
2013-06-21 19:14:00,72.6,68.0,29.90,SSW,212,5.0,9.0,84,0.01,,,0.07,23,weatherlink.com 1.10,2013-06-21 23:14:00,
2013-06-21 19:29:00,73.2,68.0,29.91,West,260,4.0,5.0,83,0.00,,,0.07,28,weatherlink.com 1.10,2013-06-21 23:29:00,
2013-06-21 19:44:00,73.4,68.0,29.91,WNW,292,0.0,3.0,83,0.00,,,0.07,28,weatherlink.com 1.10,2013-06-21 23:44:00,
2013-06-21 19:59:00,73.3,68.0,29.93,WNW,292,2.0,5.0,83,0.00,,,0.07,26,weatherlink.com 1.10,2013-06-21 23:59:00,
2013-06-21 20:14:00,73.0,68.0,29.93,WNW,292,2.0,3.0,84,0.00,,,0.07,21,weatherlink.com 1.10,2013-06-22 00:14:00,
2013-06-21 20:29:00,72.5,67.0,29.91,WNW,292,0.0,2.0,84,0.00,,,0.07,18,weatherlink.com 1.10,2013-06-22 00:29:00,
2013-06-21 20:44:00,72.4,67.0,29.92,WNW,292,0.0,1.0,84,0.00,,,0.07,12,weatherlink.com 1.10,2013-06-22 00:44:00,
2013-06-21 20:59:00,72.3,68.0,29.91,WNW,292,0.0,1.0,86,0.00,,,0.07,9,weatherlink.com 1.10,2013-06-22 00:59:00,
2013-06-21 21:14:00,72.0,68.0,29.93,WNW,292,0.0,1.0,87,0.00,,,0.07,0,weatherlink.com 1.10,2013-06-22 01:14:00,
2013-06-21 21:29:00,71.6,68.0,29.94,WNW,292,0.0,2.0,87,0.00,,,0.07,0,weatherlink.com 1.10,2013-06-22 01:29:00,
2013-06-21 21:44:00,71.7,67.0,29.94,WNW,292,0.0,4.0,85,0.00,,,0.07,0,weatherlink.com 1.10,2013-06-22 01:44:00,
2013-06-21 21:59:00,71.4,66.0,29.95,WNW,292,3.0,6.0,83,0.00,,,0.07,0,weatherlink.com 1.10,2013-06-22 01:59:00,
2013-06-21 22:14:00,71.0,66.0,29.96,WNW,292,2.0,4.0,83,0.00,,,0.07,0,weatherlink.com 1.10,2013-06-22 02:14:00,
2013-06-21 22:29:00,70.6,66.0,29.96,WNW,292,0.0,2.0,85,0.00,,,0.07,0,weatherlink.com 1.10,2013-06-22 02:29:00,
2013-06-21 22:44:00,70.0,66.0,29.97,WNW,292,3.0,4.0,86,0.00,,,0.07,0,weatherlink.com 1.10,2013-06-22 02:44:00,
2013-06-21 22:59:00,69.7,66.0,29.98,WNW,292,0.0,2.0,88,0.00,,,0.07,0,weatherlink.com 1.10,2013-06-22 02:59:00,
2013-06-21 23:14:00,69.6,66.0,29.99,WNW,292,0.0,2.0,88,0.00,,,0.07,0,weatherlink.com 1.10,2013-06-22 03:14:00,
2013-06-21 23:29:00,69.5,66.0,29.99,WNW,292,0.0,1.0,88,0.00,,,0.07,0,weatherlink.com 1.10,2013-06-22 03:29:00,
2013-06-21 23:44:00,69.2,66.0,30.00,WNW,292,0.0,1.0,89,0.00,,,0.07,0,weatherlink.com 1.10,2013-06-22 03:44:00,
2013-06-21 23:59:00,68.7,66.0,30.00,WNW,292,0.0,0.0,90,0.00,,,0.07,0,weatherlink.com 1.10,2013-06-22 03:59:00,